Volver al catálogo

ALMUNTHER

ActivoRadioaficionadoSSO
NORAD 63240·PAYLOAD·🇧🇭 Bahrain

Lanzado Mar 15, 2025 desde Vandenberg Space Force Base

Loading…

Próximos Pases (próximas 24 horas)

TLE

ActualizadoSource: Space-Track

Época: Sep 14, 2026, 12:31 UTC

1 63240U 25052AG  26257.52217587  .00013668  00000-0  41047-3 0  9991
2 63240  97.3740 152.1915 0006078 169.7737 190.3631 15.34532666 83704

Sigue ALMUNTHER en tiempo real con AllMySat

Download on the App Store